Location: Arezzo
(43.4170°N, 11.8830°E)
Time: 01:47:38
(UTC+01:00)

STARLINK-2711 - Pass Details

Date: 26 October 2021
Orbit: 545 x 549 km, 53.1° (Epoch: 30 November)

Event Time Altitude Azimuth Distance (km) Brightness Sun altitude
Exits shadow 06:20:07 11° 218° (SW) 1,748 5.8 -15.1°
Maximum altitude 06:24:00 58° 140° (SE) 642 4.1 -14.4°
Drops below altitude 10° 06:28:04 10° 61° (ENE) 1,820 7.2 -13.7°
Sets 06:30:19 0° 57° (ENE) 2,717 8.1 -13.3°
